Regional Weather Roundup
Issued by NWS

Home | Current Version | Previous Version | Graphics & Text | Print | Product List | Glossary On
Versions: 1 2 3 4 5 6 7 8 9 10 11 12 13 14 15 16 17 18 19 20 21 22 23 24 25 26 27 28 29 30 31 32 33 34 35 36 37 38 39 40 41 42 43 44 45 46 47 48 49 50
000
ASUS43 KFSD 290510
RWRSD

WEATHER ROUNDUP FOR SOUTH DAKOTA
NATIONAL WEATHER SERVICE SIOUX FALLS SD
1200 AM CDT SAT APR 29 2017

NOTE: "FAIR" INDICATES FEW OR NO CLOUDS BELOW 12,000 FEET WITH NO
SIGNIFICANT WEATHER AND/OR OBSTRUCTIONS TO VISIBILITY.


SDZ001>005-009-010-012>017-290600-
NORTHWEST AND NORTH CENTRAL SOUTH DAKOTA

CITY           SKY/WX    TMP DP  RH WIND       PRES   REMARKS
BUFFALO          N/A     41  26  55 S5        30.13S
FAITH            N/A     44  16  32 CALM      30.20R
MOBRIDGE       CLOUDY    37  13  37 SW3       30.17R
$$

SDZ012>016-024>037-041>051-057-063-072>074-290600-
SOUTHWEST AND SOUTH CENTRAL SOUTH DAKOTA

CITY           SKY/WX    TMP DP  RH WIND       PRES   REMARKS
RAPID CTY ARPT CLOUDY    34  24  67 E6        30.19R WCI  29
PIERRE         MOCLDY    37  18  46 CALM      30.18R
CUSTER         CLOUDY    30  23  75 NE6       30.15R WCI  24
ELLSWORTH AFB  CLOUDY    40  26  58 CALM      30.19R
PHILIP         CLOUDY    35  26  69 W3        30.20R
PINE RIDGE     CLOUDY    39  28  64 NE8       30.17S
SPEARFISH      FAIR      36  28  75 S9        30.19S
WINNER         CLOUDY    43  25  49 N8        30.18R
$$

SDZ004>011-016>023-039-040-290600-
NORTHEAST SOUTH DAKOTA

CITY           SKY/WX    TMP DP  RH WIND       PRES   REMARKS
ABERDEEN       CLEAR     33  23  66 CALM      30.18R
WATERTOWN      CLEAR     33  20  58 N7        30.15R WCI  27
BROOKINGS      CLOUDY    36  22  56 N7        30.14S
SISSETON         N/A     33  24  69 NW3       30.17R
$$

SDZ017-020-022-023-036>040-048>070-290600-
SOUTHEAST SOUTH DAKOTA

CITY           SKY/WX    TMP DP  RH WIND       PRES   REMARKS
SIOUX FALLS    CLOUDY    38  27  64 N3        30.13R
HURON          CLOUDY    33  22  63 N7        30.17R WCI  27
CHAMBERLAIN    PTCLDY    42  23  47 N5        30.18R
MITCHELL       CLOUDY    36  24  62 N3        30.17R
YANKTON        CLOUDY    43  28  56 N9        30.14R
$$

ABBREVIATIONS USED IN REMARKS
   TC - TEMPERATURE IN CELSIUS
  WCI - WIND CHILL INDEX
   HX - HEAT INDEX
  VSB - VISIBILITY





USA.gov is the U.S. government's official web portal to all federal, state and local government web resources and services.